Location: Unspecified
(0.0000°N, 0.0000°E)
Time: 05:57:54
(UTC+00:00)

deb West Ford - Pass Details

Date: 20 May 2026
Orbit: 2163 x 4941 km, 86.7° (Epoch: 8 June)

Event Time Altitude Azimuth Distance (km) Brightness Sun altitude
Exits shadow 01:47:41 33° 3° (N) 3,269 ? -56.3°
Drops below altitude 10° 01:52:33 10° 1° (N) 4,683 ? -55.3°
Sets 01:55:38 0° 1° (N) 5,676 ? -54.7°
